KXMRKTTS

Guest
Details From KXMR - Cape Canaveral Afs Skid Strip
To KTTS - Nasa Shuttle Landing Facility
Flight Number -
Tags Generated
Created
Modified
Stats Distance 12 nm / 21 km
Max Altitude 0 ft / 0 m
Waypoints 2
Social Downloads 1
Likes 0
Share VATSIM

Download

Looking for another format? Having issues loading an existing format? Contact us
Advertisement - Login to hide

Notes

Generated

Route

KXMR KTTS

ID Type Via Altitude Latitude Longitude Leg Dist Tot Dist Heading (true) Name
O KXMR APT - 0 ft / 0 m 28.47601˚ -80.57891˚ - 0 nm - -
O KTTS APT - 0 ft / 0 m 28.63275˚ -80.70606˚ 11 nm 11 nm 325° / 324° -

Altitude Profile

Advertisement - Login to hide

KXMR

Details ICAO KXMR
Name CAPE CANAVERAL AFS SKID STRIP
Region United States
Timezone America/New_York (UTC-4.0)
Stats Elevation 10 ft / 3 m (AMSL)
Location 28.467586° -80.566615°
Runways 1
Magnetic Variation 6.911° W

METAR

KXMR 211956Z AUTO 14012KT 7SM FEW160 FEW190 SCT210 27/23 A3006 RMK AO2 SLP182 T02710225 FZRANO $

Decode

TAF

Not found

Departure Runways

ID Width Length Bearing (true) Bearing (mag) Surface Threshold Offset Overrun Length
13 200 ft / 61 m 10,002 ft / 3,049 m 127.93° 134.84° Asphalt 0 ft / 0 m 0 ft / 0 m
31 200 ft / 61 m 10,002 ft / 3,049 m 307.94° 314.85° Asphalt 0 ft / 0 m 0 ft / 0 m

KTTS

Details ICAO KTTS
Name NASA Shuttle Landing Facility
Region United States
Timezone America/New_York (UTC-4.0)
Stats Elevation 10 ft / 3 m (AMSL)
Location 28.614891° -80.694371°
Runways 1
Magnetic Variation 6.853° W

METAR

KTTS 212006Z AUTO 14007KT 8SM SCT022 BKN029 BKN036 26/22 A3007 RMK AO2 CIG 028V036 BKN029 V SCT CIG 023 RWY15/33 CIG 021 RWY33 SLP187

Decode

TAF

Not found

Destination Runways

ID Width Length Bearing (true) Bearing (mag) Surface Threshold Offset Overrun Length
15 300 ft / 91 m 15,035 ft / 4,583 m 150.12° 156.97° Concrete 0 ft / 0 m 1,000 ft / 305 m
33 300 ft / 91 m 15,035 ft / 4,583 m 330.13° 336.98° Concrete 0 ft / 0 m 1,000 ft / 305 m